1500901200.46,28121,22.63,73818.5,12.31,1.75,0.67,0,*76
1500901201.72,28122,22.63,73816.5,12.29,2.05,0.91,0,*71
1500901202.92,28123,22.56,73818.3,12.31,2.73,1.75,0,*43
1500901204.12,28124,22.63,73818.3,12.31,2.35,1.29,0,*4F
1500901205.35,28125,22.56,73816.8,12.31,2.59,1.51,0,*4B
1500901206.58,28126,22.56,73818.0,12.33,2.09,1.01,0,*4A
1500901207.84,28127,22.63,73822.5,12.33,1.63,0.51,0,*70
1500901209.1,28128,22.63,73822.3,12.33,1.63,0.51,0,*7F
1500901210.36,28129,22.63,73820.3,12.33,2.09,1.13,0,*46
1500901211.56,28130,22.63,73822.0,12.31,2.35,1.51,0,*45
1500901212.79,28131,22.63,73822.0,12.31,2.59,1.67,0,*4B
1500901213.99,28132,22.56,73822.5,12.31,1.75,0.83,0,*7E
1500901215.19,28133,22.63,73822.3,12.31,1.75,0.83,0,*7F
1500901216.45,28134,22.63,73818.8,12.29,1.85,0.91,0,*7D
1500901217.68,28135,22.63,73818.0,12.31,2.47,1.43,0,*46
1500901218.88,28136,22.56,73818.5,12.31,2.91,1.97,0,*47
1500901220.11,28137,22.56,73818.3,12.31,2.47,1.55,0,*43
1500901221.33,28138,22.63,73822.0,12.31,2.01,0.95,0,*73
1500901222.56,28139,22.63,73822.8,12.31,2.39,1.43,0,*43
1500901223.79,28140,22.63,73826.8,12.31,2.51,1.55,0,*44
1500901225.01,28141,22.63,73826.0,12.31,1.89,0.95,0,*7E
1500901226.21,28142,22.63,73824.8,12.31,2.73,1.79,0,*48
1500901227.43,28143,22.56,73822.5,12.31,3.19,2.25,0,*4E
1500901228.69,28144,22.56,73826.3,12.33,3.19,2.25,0,*4B
1500901229.96,28145,22.63,73830.0,12.33,3.67,2.81,0,*4D
1500901231.2,28146,22.56,73826.8,12.35,4.05,3.15,0,*47
1500901232.44,28147,22.63,73826.3,12.37,4.23,3.41,0,*41
1500901233.65,28148,22.63,73826.8,12.39,3.79,2.99,0,*4C
1500901234.88,28149,22.56,73820.8,12.39,3.71,2.77,0,*45
1500901236.14,28150,22.63,73822.5,12.41,3.67,2.85,0,*48
1500901237.41,28151,22.63,73824.0,12.41,3.33,2.51,0,*41
1500901238.64,28152,22.56,73824.5,12.41,2.91,2.01,0,*4E
1500901239.85,28153,22.63,73824.0,12.43,3.93,3.11,0,*4E
1500901241.09,28154,22.63,73820.5,12.43,4.05,3.15,0,*45
1500901242.3,28155,22.63,73822.3,12.43,3.93,3.11,0,*48
1500901243.53,28156,22.63,73818.3,12.45,3.85,3.23,0,*4B
1500901244.76,28157,22.63,73816.3,12.45,3.71,2.95,0,*4D
1500901246.0,28158,22.63,73818.8,12.49,3.03,2.27,0,*42
1500901247.23,28159,22.63,73818.5,12.49,3.15,2.31,0,*43
1500901248.49,28160,22.63,73820.0,12.45,2.39,1.59,0,*47
1500901249.74,28161,22.56,73812.3,12.49,2.55,1.71,0,*4A
1500901250.98,28162,22.63,73814.0,12.49,2.65,1.85,0,*41
1500901252.25,28163,22.63,73816.3,12.45,3.15,2.43,0,*43
1500901253.48,28164,22.63,73816.8,12.45,3.79,2.99,0,*49
1500901254.72,28165,22.63,73818.3,12.49,3.59,2.77,0,*46
1500901255.97,28166,22.63,73816.0,12.49,2.55,1.71,0,*4D
1500901257.23,28167,22.63,73822.3,12.49,2.89,2.09,0,*41
1500901258.49,28168,22.63,73824.0,12.49,2.81,2.09,0,*46
1500901259.75,28169,22.63,73828.3,12.49,2.47,1.51,0,*43
1500901260.98,28170,22.56,73826.8,12.45,2.31,1.59,0,*4E
1500901262.21,28171,22.63,73830.3,12.45,2.55,1.83,0,*4A
1500901263.46,28172,22.63,73830.5,12.45,2.89,2.05,0,*45
1500901264.73,28173,22.63,73828.5,12.45,3.07,2.25,0,*41
1500901265.96,28174,22.63,73830.5,12.45,3.33,2.27,0,*43
1500901267.19,28175,22.63,73830.0,12.45,3.11,2.31,0,*45
1500901268.45,28176,22.56,73824.8,12.49,3.49,2.77,0,*45
1500901269.68,28177,22.56,73826.8,12.49,3.25,2.55,0,*4E
1500901270.94,28178,22.63,73828.3,12.49,3.03,2.21,0,*46
1500901272.18,28179,22.63,73832.0,12.49,2.91,2.17,0,*48
1500901273.43,28180,22.63,73828.0,12.49,2.55,1.71,0,*45
1500901274.69,28181,22.63,73830.8,12.49,2.05,1.13,0,*45
1500901275.95,28182,22.63,73828.8,12.45,2.43,1.59,0,*46
1500901277.18,28183,22.56,73826.3,12.45,2.95,2.25,0,*44
1500901278.42,28184,22.63,73830.0,12.45,2.65,2.01,0,*4A
1500901279.65,28185,22.63,73830.3,12.49,2.31,1.63,0,*41
1500901280.91,28186,22.63,73824.5,12.45,2.13,1.29,0,*40
1500901282.11,28187,22.56,73824.3,12.43,2.31,1.59,0,*40
1500901283.34,28188,22.63,73826.3,12.43,2.39,1.55,0,*4B
1500901284.54,28189,22.63,73828.8,12.43,2.27,1.51,0,*41
1500901285.76,28190,22.63,73828.5,12.43,2.73,1.93,0,*46
1500901286.99,28191,22.63,73826.3,12.43,2.85,2.05,0,*42
1500901288.22,28192,22.63,73824.8,12.49,3.29,2.59,0,*45
1500901289.49,28193,22.63,73826.8,12.45,3.11,2.43,0,*48
1500901290.73,28194,22.56,73822.3,12.45,4.07,3.37,0,*4D
1500901291.98,28195,22.63,73822.8,12.49,3.19,2.43,0,*4A
1500901293.24,28196,22.63,73822.3,12.49,2.69,1.93,0,*41
1500901294.48,28197,22.63,73818.0,12.49,2.65,1.85,0,*4B
1500901295.73,28198,22.63,73818.3,12.49,2.89,2.09,0,*41
1500901296.97,28199,22.63,73816.3,12.49,2.65,1.93,0,*42
1500901298.2,28200,22.63,73814.8,12.49,3.25,2.55,0,*4D
1500901299.46,28201,22.56,73814.8,12.49,3.41,2.69,0,*41
1500901300.71,28202,22.63,73814.8,12.49,2.69,1.93,0,*4F
1500901301.91,28203,22.63,73812.8,12.51,2.61,1.89,0,*44
1500901303.15,28204,22.63,73814.8,12.51,2.39,1.67,0,*4E
1500901304.4,28205,22.56,73814.0,12.53,2.85,2.13,0,*4A
1500901305.62,28206,22.63,73814.5,12.53,1.75,0.95,0,*79
1500901306.82,28207,22.56,73814.0,12.51,1.75,0.95,0,*7A
1500901308.05,28208,22.63,73816.0,12.49,2.27,1.55,0,*45
1500901309.3,28209,22.63,73816.0,12.49,2.21,1.43,0,*45
1500901310.51,28210,22.63,73816.0,12.45,1.83,1.05,0,*48
1500901311.74,28211,22.63,73818.8,12.49,2.35,1.55,0,*4E
1500901312.97,28212,22.63,73822.5,12.49,2.27,1.47,0,*4D
1500901314.23,28213,22.56,73818.3,12.45,1.93,1.09,0,*46
1500901315.47,28214,22.56,73816.0,12.45,2.51,1.79,0,*4B
1500901316.72,28215,22.63,73820.5,12.45,2.85,2.05,0,*4B
1500901317.95,28216,22.63,73820.8,12.45,2.17,1.41,0,*40
1500901319.22,28217,22.63,73822.3,12.49,1.97,1.13,0,*41
1500901320.48,28218,22.56,73822.8,12.45,2.39,1.55,0,*47
1500901321.74,28219,22.56,73816.8,12.45,2.17,1.33,0,*4A
1500901322.99,28220,22.56,73822.0,12.45,2.25,1.43,0,*46
1500901324.23,28221,22.63,73822.0,12.49,2.59,1.83,0,*4C
1500901325.46,28222,22.63,73822.0,12.49,2.99,2.21,0,*48
1500901326.72,28223,22.63,73822.8,12.49,2.43,1.63,0,*4B
1500901327.96,28224,22.63,73822.8,12.45,2.51,1.83,0,*4D
1500901329.23,28225,22.63,73820.0,12.49,3.15,2.43,0,*4E
1500901330.48,28226,22.63,73820.3,12.49,3.53,2.77,0,*48
1500901331.74,28227,22.63,73818.8,12.53,3.33,2.51,0,*40
1500901332.99,28228,22.56,73816.8,12.53,3.23,2.47,0,*49
1500901334.25,28229,22.63,73816.5,12.53,3.41,2.59,0,*43
1500901335.48,28230,22.63,73816.0,12.57,3.55,2.77,0,*46
1500901336.71,28231,22.63,73812.3,12.55,3.67,2.85,0,*49
1500901337.95,28232,22.63,73814.3,12.57,3.45,2.65,0,*46
1500901339.15,28233,22.63,73812.3,12.59,3.59,2.69,0,*48
1500901340.38,28234,22.63,73812.8,12.61,2.85,2.09,0,*42
1500901341.59,28235,22.63,73814.5,12.59,3.29,2.47,0,*45
1500901342.82,28236,22.63,73812.3,12.59,3.23,2.43,0,*48
1500901344.06,28237,22.63,73812.3,12.61,3.75,2.85,0,*4B
1500901345.29,28238,22.63,73810.8,12.61,3.19,2.43,0,*44
1500901346.52,28239,22.63,73814.3,12.65,2.77,1.93,0,*46
1500901347.74,28240,22.63,73816.3,12.65,2.95,2.17,0,*4B
1500901348.97,28241,22.63,73818.0,12.67,3.53,2.65,0,*46
1500901350.18,28242,22.63,73816.8,12.65,3.55,2.77,0,*42
1500901351.44,28243,22.63,73814.5,12.67,3.49,2.59,0,*40
1500901352.7,28244,22.63,73814.3,12.67,4.05,3.23,0,*44
1500901353.93,28245,22.63,73814.5,12.69,3.97,3.15,0,*42
1500901355.14,28246,22.63,73814.8,12.69,3.93,3.23,0,*40
1500901356.35,28247,22.63,73812.0,12.75,3.81,3.29,0,*45
1500901357.58,28248,22.63,73812.3,12.75,4.11,3.67,0,*4E
1500901358.79,28249,22.63,73814.0,12.77,4.37,4.05,0,*4A
1500901360.0,28250,22.63,73812.3,12.77,4.37,4.01,0,*46
1500901361.2,28251,22.56,73810.5,12.79,4.41,4.07,0,*4E
1500901362.39,28252,22.63,73808.3,12.81,4.15,3.63,0,*4E
1500901363.62,28253,22.63,73812.0,12.83,4.23,3.75,0,*4F
1500901364.82,28254,22.63,73810.5,12.83,4.27,3.63,0,*4B
1500901366.03,28255,22.63,73814.0,12.85,4.37,3.79,0,*46
1500901367.26,28256,22.63,73812.5,12.85,4.31,3.67,0,*4C
1500901368.46,28257,22.63,73810.8,12.85,3.81,3.15,0,*44
1500901369.71,28258,22.63,73810.3,12.87,2.73,2.01,0,*41
1500901370.95,28259,22.63,73812.0,12.85,3.15,2.39,0,*48
1500901372.18,28260,22.63,73814.3,12.87,3.45,2.65,0,*4C
1500901373.39,28261,22.63,73812.0,12.89,3.85,3.11,0,*4D
1500901374.6,28262,22.56,73810.3,12.89,3.59,2.77,0,*4E
1500901375.83,28263,22.56,73812.3,12.91,4.11,3.41,0,*49
1500901377.09,28264,22.63,73814.3,12.91,4.31,3.53,0,*4F
1500901378.3,28265,22.56,73810.8,12.95,4.23,3.33,0,*4F
1500901379.51,28266,22.63,73812.5,12.97,3.81,2.99,0,*40
1500901380.77,28267,22.63,73812.3,12.97,4.01,3.11,0,*4F
1500901381.98,28268,22.63,73812.8,12.97,3.89,2.99,0,*46
1500901383.18,28269,22.56,73812.8,12.99,3.25,2.61,0,*48
1500901384.44,28270,22.63,73816.3,13.01,3.03,2.21,0,*40
1500901385.7,28271,22.63,73814.3,13.01,3.11,2.21,0,*42
1500901386.93,28272,22.63,73814.5,12.99,3.45,2.55,0,*43
1500901388.12,28273,22.63,73808.3,12.99,3.55,2.65,0,*40
1500901389.33,28274,22.63,73810.8,12.99,3.23,2.31,0,*47
1500901390.56,28275,22.63,73814.0,12.99,2.85,2.01,0,*48
1500901391.77,28276,22.63,73812.3,12.99,2.91,2.01,0,*4E
1500901392.98,28277,22.63,73814.3,12.99,2.65,1.71,0,*40
1500901394.25,28278,22.56,73810.8,12.97,3.67,3.11,0,*46
1500901395.49,28279,22.63,73814.3,12.99,3.71,2.85,0,*42
1500901396.72,28280,22.63,73814.5,13.01,3.55,2.77,0,*4F
1500901397.95,28281,22.63,73814.3,12.99,3.45,2.55,0,*4F
1500901399.19,28282,22.63,73812.0,13.01,3.75,2.91,0,*47
1500901400.44,28283,22.63,73814.3,13.01,3.75,2.99,0,*4E
1500901401.64,28284,22.63,73812.0,13.03,4.33,3.53,0,*49
1500901402.85,28285,22.63,73812.5,13.03,4.45,3.71,0,*49
1500901404.03,28286,22.63,73812.8,13.07,4.45,3.55,0,*48
1500901405.26,28287,22.63,73816.0,13.05,4.49,3.67,0,*46
1500901406.49,28288,22.63,73812.8,13.05,4.53,3.79,0,*4D
1500901407.73,28289,22.63,73810.8,13.09,4.53,3.71,0,*48
1500901408.93,28290,22.63,73814.3,13.17,4.45,3.55,0,*4E
1500901410.14,28291,22.63,73814.3,13.11,4.07,3.19,0,*47
1500901411.35,28292,22.63,73814.5,13.11,4.19,3.41,0,*46
1500901412.55,28293,22.63,73814.3,13.11,3.71,2.91,0,*42
1500901413.78,28294,22.63,73812.8,13.11,3.53,2.77,0,*4D
1500901415.01,28295,22.63,73812.0,13.11,3.37,2.55,0,*4E
1500901416.27,28296,22.56,73810.0,13.13,3.15,2.21,0,*4C
1500901417.53,28297,22.63,73810.0,13.13,3.03,2.09,0,*40
1500901418.71,28298,22.56,73806.8,13.11,3.25,2.35,0,*46
1500901419.89,28299,22.63,73806.0,13.11,3.29,2.31,0,*4F
1500901421.13,28300,22.63,73806.5,13.13,3.15,2.27,0,*44
1500901422.36,28301,22.63,73806.8,13.13,2.91,2.05,0,*48
1500901423.59,28302,22.63,73802.0,13.13,3.49,2.65,0,*49
1500901424.83,28303,22.56,73802.5,13.13,3.85,3.03,0,*49
1500901426.03,28304,22.63,73804.0,13.13,3.81,2.91,0,*40
1500901427.29,28305,22.63,73804.8,13.13,3.49,2.59,0,*41
1500901428.5,28306,22.63,73804.8,13.11,3.07,2.35,0,*40
1500901429.76,28307,22.63,73806.8,13.17,3.07,2.39,0,*4B
1500901431.01,28308,22.56,73802.5,13.17,2.51,1.89,0,*4E
1500901432.25,28309,22.63,73800.5,13.13,3.25,2.81,0,*42
1500901433.46,28310,22.63,73802.5,13.13,2.31,1.75,0,*46
1500901434.7,28311,22.63,73800.5,13.11,1.33,0.75,0,*75
1500901435.93,28312,22.63,73800.5,13.09,1.05,0.37,0,*7C
1500901437.19,28313,22.63,73800.5,13.09,1.89,1.13,0,*4E
1500901438.45,28314,22.63,73800.0,13.05,1.55,0.83,0,*7C
1500901439.71,28315,22.63,73800.0,13.05,2.81,2.09,0,*47
1500901440.97,28316,22.63,73800.0,13.05,3.45,2.85,0,*49
1500901442.2,28317,22.63,73804.0,13.05,2.91,2.21,0,*4E
1500901443.46,28318,22.63,73804.8,13.05,2.69,2.01,0,*44
1500901444.69,28319,22.63,73804.3,13.05,2.35,1.67,0,*4F
1500901445.92,28320,22.63,73804.0,13.03,2.43,1.71,0,*45
1500901447.13,28321,22.63,73804.5,13.03,2.43,1.75,0,*40
1500901448.34,28322,22.56,73800.8,13.03,3.63,2.89,0,*40
1500901449.61,28323,22.63,73802.8,13.05,3.79,3.07,0,*4B
1500901450.84,28324,22.63,73804.3,13.05,3.11,2.35,0,*42
1500901452.06,28325,22.63,73802.8,13.07,3.23,2.61,0,*41
1500901453.24,28326,22.63,73808.3,13.07,3.55,2.99,0,*44
1500901454.51,28327,22.63,73808.0,13.09,3.67,3.03,0,*48
1500901455.77,28328,22.63,73808.3,13.09,3.79,3.23,0,*4A
1500901457.03,28329,22.63,73804.3,13.09,3.45,2.85,0,*49
1500901458.29,28330,22.63,73806.8,13.09,4.05,3.45,0,*4F
1500901459.48,28331,22.56,73806.3,13.11,3.25,2.65,0,*41
1500901460.71,28332,22.63,73806.8,13.13,3.59,3.07,0,*4E
1500901461.95,28333,22.63,73800.0,13.11,3.75,3.15,0,*40
1500901463.16,28334,22.63,73804.3,13.11,3.29,2.81,0,*42
1500901464.42,28335,22.63,73800.8,13.13,3.49,3.03,0,*4C
1500901465.65,28336,22.63,73804.8,13.13,3.37,2.91,0,*4C
1500901466.89,28337,22.63,73800.0,13.13,3.15,2.91,0,*4D
1500901468.13,28338,22.63,73804.0,13.13,3.25,3.15,0,*4C
1500901469.38,28339,22.63,73804.3,13.17,2.85,2.73,0,*43
1500901470.59,28340,22.63,73804.5,13.13,1.83,1.75,0,*49
1500901471.79,28341,22.63,73802.3,13.11,2.43,2.35,0,*42
1500901473.03,28342,22.63,73802.5,13.11,2.47,2.43,0,*44
1500901474.25,28343,22.63,73804.8,13.11,2.21,1.93,0,*4B
1500901475.48,28344,22.63,73806.5,13.09,2.31,2.05,0,*48
1500901476.74,28345,22.63,73806.8,13.09,1.93,1.71,0,*42
1500901477.95,28346,22.63,73810.0,13.07,2.27,2.09,0,*4F
1500901479.21,28347,22.63,73806.8,13.09,2.77,2.51,0,*48
1500901480.44,28348,22.56,73804.0,13.07,2.73,2.39,0,*43
1500901481.7,28349,22.63,73808.3,13.05,3.19,2.73,0,*43
1500901482.94,28350,22.63,73812.0,13.05,2.59,2.27,0,*4F
1500901484.12,28351,22.63,73812.8,13.07,3.29,2.95,0,*43
1500901485.35,28352,22.56,73810.5,13.07,3.33,3.07,0,*41
1500901486.54,28353,22.63,73814.8,13.07,2.95,2.61,0,*4C
1500901487.78,28354,22.63,73816.3,13.07,3.45,3.11,0,*41
1500901488.99,28355,22.63,73814.5,13.09,3.25,2.99,0,*49
1500901490.22,28356,22.63,73812.5,13.07,2.39,2.01,0,*49
1500901491.42,28357,22.63,73810.0,13.07,2.35,1.89,0,*47
1500901492.61,28358,22.63,73804.3,13.07,2.61,2.35,0,*4D
1500901493.84,28359,22.63,73806.8,13.07,2.85,2.51,0,*44
1500901495.08,28360,22.63,73806.5,13.07,3.11,2.81,0,*4F
1500901496.33,28361,22.63,73804.0,13.07,3.07,2.81,0,*49
1500901497.54,28362,22.63,73804.3,13.07,3.23,2.99,0,*45
1500901498.78,28363,22.63,73806.0,13.09,3.25,3.11,0,*4D
1500901500.04,28364,22.56,73800.8,13.09,2.43,2.13,0,*48
1500901501.28,28365,22.63,73806.0,13.09,2.65,2.39,0,*45
1500901502.54,28366,22.63,73806.5,13.09,1.51,1.29,0,*40
1500901503.74,28367,22.63,73810.3,13.07,1.47,1.05,0,*46
1500901505.0,28368,22.63,73810.5,13.05,1.29,0.95,0,*7B
1500901506.21,28369,22.63,73808.5,13.03,1.75,1.47,0,*4B
1500901507.44,28370,22.63,73810.8,13.03,1.43,1.13,0,*47
1500901508.65,28371,22.63,73810.3,12.99,2.27,2.13,0,*46
1500901509.9,28372,22.56,73810.0,13.01,2.31,2.13,0,*42
1500901511.17,28373,22.63,73810.5,13.01,3.15,2.89,0,*47
1500901512.42,28374,22.63,73812.5,13.01,2.73,2.43,0,*47
1500901513.66,28375,22.63,73810.3,13.01,2.85,2.65,0,*4B
1500901514.9,28376,22.63,73812.8,13.03,3.15,2.89,0,*40
1500901516.14,28377,22.63,73814.0,13.03,3.11,2.77,0,*44
1500901517.35,28378,22.63,73812.8,13.03,1.83,1.51,0,*45
1500901518.61,28379,22.63,73814.5,13.01,1.09,0.63,0,*74
1500901519.82,28380,22.63,73814.5,12.99,1.79,1.43,0,*46
1500901521.03,28381,22.63,73814.3,12.99,2.27,2.05,0,*4E
1500901522.29,28382,22.63,73810.0,12.97,2.13,1.85,0,*4F
1500901523.52,28383,22.63,73810.3,12.95,1.89,1.67,0,*40
1500901524.75,28384,22.63,73804.8,12.95,1.37,0.95,0,*7E
1500901525.99,28385,22.63,73804.8,12.91,0.55,0.13,0,*40
1500901527.23,28386,22.63,73804.3,12.89,1.09,0.63,0,*75
1500901528.46,28387,22.63,73800.3,12.89,1.71,1.37,0,*4B
1500901529.69,28388,22.63,73796.8,12.87,2.09,1.79,0,*4C
1500901530.92,28389,22.63,73806.3,12.87,2.21,1.83,0,*42
1500901532.15,28390,22.63,73804.5,12.87,2.31,2.05,0,*46
1500901533.37,28391,22.63,73804.3,12.87,1.43,1.05,0,*42
1500901534.57,28392,22.63,73812.3,12.85,1.75,1.51,0,*47
1500901535.77,28393,22.63,73814.3,12.85,2.73,2.35,0,*42
1500901536.96,28394,22.63,73814.3,12.85,1.67,1.41,0,*43
1500901538.19,28395,22.63,73812.5,12.85,1.85,1.55,0,*4B
1500901539.44,28396,22.63,73808.5,12.83,2.21,1.93,0,*49
1500901540.69,28397,22.63,73810.0,12.83,2.47,1.97,0,*4C
1500901541.94,28398,22.63,73812.5,12.83,2.21,1.93,0,*47
1500901543.17,28399,22.63,73810.3,12.81,2.81,2.55,0,*47
1500901544.39,28400,22.63,73808.0,12.83,3.49,3.25,0,*41
1500901545.62,28401,22.63,73802.0,12.85,3.53,3.41,0,*4F
1500901546.83,28402,22.63,73804.3,12.85,3.67,3.55,0,*4E
1500901548.05,28403,22.63,73806.5,12.85,3.45,3.19,0,*47
1500901549.28,28404,22.63,73802.0,12.87,3.63,3.45,0,*4F
1500901550.54,28405,22.63,73800.8,12.87,3.15,2.89,0,*4E
1500901551.8,28406,22.63,73800.3,12.91,3.41,3.37,0,*4F
1500901553.03,28407,22.63,73802.3,12.91,2.95,2.77,0,*43
1500901554.27,28408,22.63,73798.5,12.89,2.51,2.43,0,*4A
1500901555.47,28409,22.63,73798.3,12.91,1.83,1.75,0,*48
1500901556.69,28410,22.63,73796.0,12.89,2.27,2.17,0,*43
1500901557.9,28411,22.63,73798.8,12.89,2.09,1.83,0,*40
1500901559.13,28412,22.63,73794.3,12.89,1.93,1.67,0,*49
1500901560.37,28413,22.63,73796.8,12.87,2.05,1.71,0,*4D
1500901561.62,28414,22.63,73798.0,12.87,1.93,1.59,0,*4C
1500901562.82,28415,22.63,73802.3,12.85,1.75,1.17,0,*4D
1500901564.03,28416,22.63,73802.3,12.85,1.01,0.59,0,*76
1500901565.25,28417,22.56,73798.8,12.85,0.71,0.21,0,*4E
1500901566.43,28418,22.63,73802.5,12.81,-0.15,-0.77,0,*44
1500901567.67,28419,22.63,73804.8,12.79,0.75,0.21,0,*47
1500901568.91,28420,22.63,73808.5,12.77,1.21,0.59,0,*7C
1500901570.12,28421,22.63,73806.0,12.77,2.61,2.05,0,*41
1500901571.32,28422,22.63,73804.3,12.77,2.25,1.79,0,*4A
1500901572.53,28423,22.63,73804.8,12.77,2.35,1.93,0,*4E
1500901573.76,28424,22.63,73806.8,12.79,3.03,2.61,0,*4D
1500901575.01,28425,22.63,73804.5,12.79,2.21,1.67,0,*48
1500901576.22,28426,22.63,73804.8,12.81,3.11,2.61,0,*4B
1500901577.44,28427,22.63,73804.3,12.81,3.15,2.65,0,*4A
1500901578.67,28428,22.63,73806.3,12.81,2.89,2.39,0,*48
1500901579.88,28429,22.63,73806.0,12.83,2.91,2.35,0,*4E
1500901581.1,28430,22.63,73806.8,12.81,2.69,2.21,0,*46
1500901582.29,28431,22.63,73802.5,12.81,2.31,1.83,0,*41
1500901583.54,28432,22.63,73806.5,12.83,2.47,1.97,0,*44
1500901584.77,28433,22.63,73800.3,12.83,3.25,2.73,0,*49
1500901586.0,28434,22.63,73800.8,12.83,2.47,1.83,0,*47
1500901587.23,28435,22.63,73798.5,12.85,2.81,2.25,0,*45
1500901588.41,28436,22.63,73792.5,12.85,2.27,1.75,0,*4C
1500901589.65,28437,22.63,73796.3,12.87,1.89,1.43,0,*4D
1500901590.86,28438,22.63,73798.5,12.85,2.25,1.79,0,*4C
1500901592.08,28439,22.63,73796.5,12.87,2.27,1.67,0,*42
1500901593.31,28440,22.63,73802.5,12.87,1.71,1.05,0,*48
1500901594.51,28441,22.63,73800.0,12.85,1.97,1.41,0,*43
1500901595.74,28442,22.63,73800.3,12.85,2.17,1.55,0,*4E
1500901596.94,28443,22.63,73802.0,12.85,3.29,2.73,0,*44
1500901598.15,28444,22.63,73804.5,12.87,3.25,2.65,0,*4A
1500901599.37,28445,22.63,73802.5,12.87,2.31,1.89,0,*4E
1500901600.63,28446,22.63,73804.3,12.91,2.13,1.51,0,*4F
1500901601.85,28447,22.63,73804.0,12.89,2.01,1.43,0,*47
1500901603.09,28448,22.63,73804.5,12.89,1.37,0.75,0,*7A
1500901604.28,28449,22.63,73802.5,12.89,1.79,1.05,0,*47
1500901605.51,28450,22.63,73804.8,12.89,1.89,1.33,0,*45
1500901606.77,28451,22.63,73804.8,12.87,1.17,0.47,0,*7F
1500901608.01,28452,22.63,73806.8,12.87,1.67,0.95,0,*74
1500901609.23,28453,22.63,73810.5,12.87,1.67,1.05,0,*4D
1500901610.46,28454,22.63,73806.5,12.85,1.63,0.91,0,*70
1500901611.69,28455,22.63,73806.3,12.87,2.31,1.71,0,*48
1500901612.92,28456,22.63,73806.0,12.89,1.33,0.71,0,*75
1500901614.15,28457,22.63,73806.0,12.89,2.09,1.43,0,*4E
1500901615.35,28458,22.63,73808.3,12.89,0.83,0.09,0,*7E
1500901616.6,28459,22.63,73804.5,12.87,1.55,0.83,0,*79
1500901617.85,28460,22.63,73804.8,12.87,2.21,1.55,0,*49
1500901619.08,28461,22.63,73802.8,12.87,1.79,1.21,0,*45
1500901620.31,28462,22.63,73800.3,12.89,2.51,1.89,0,*43
1500901621.54,28463,22.63,73804.5,12.89,2.21,1.59,0,*48
1500901622.78,28464,22.63,73802.5,12.91,2.13,1.47,0,*48
1500901624.03,28465,22.63,73802.8,12.91,2.13,1.59,0,*46
1500901625.28,28466,22.63,73802.8,12.91,2.09,1.47,0,*41
1500901626.53,28467,22.63,73800.8,12.91,1.51,0.87,0,*73
1500901627.76,28468,22.63,73802.5,12.91,1.75,1.13,0,*46
1500901628.97,28469,22.63,73804.3,12.91,0.67,0.01,0,*77
1500901630.19,28470,22.63,73804.0,12.91,0.63,-0.11,0,*67
1500901631.42,28471,22.63,73806.5,12.89,-0.73,-1.35,0,*74
1500901632.59,28472,22.63,73808.3,12.85,-0.07,-0.69,0,*70
1500901633.82,28473,22.63,73814.0,12.87,0.21,-0.49,0,*68
1500901635.0,28474,22.63,73810.3,12.85,-0.53,-1.21,0,*7A
1500901636.21,28475,22.63,73810.3,12.81,-0.11,-0.89,0,*4A
1500901637.42,28476,22.63,73812.8,12.81,0.59,-0.11,0,*69
1500901638.64,28477,22.63,73810.0,12.81,0.47,-0.27,0,*62
1500901639.85,28478,22.63,73810.3,12.81,0.51,-0.15,0,*6B
1500901641.05,28479,22.63,73814.3,12.81,0.13,-0.73,0,*6C
1500901642.27,28480,22.63,73812.8,12.81,0.87,0.33,0,*4E
1500901643.49,28481,22.63,73814.3,12.79,0.33,-0.37,0,*6E
1500901644.74,28482,22.63,73810.3,12.79,1.09,0.17,0,*7A
1500901645.97,28483,22.63,73814.3,12.79,-0.11,-0.85,0,*48
1500901647.19,28484,22.63,73810.8,12.79,0.33,-0.49,0,*62
1500901648.44,28485,22.63,73810.3,12.79,1.43,0.63,0,*70
1500901649.7,28486,22.63,73812.5,12.79,1.97,1.33,0,*4E
1500901650.94,28487,22.63,73814.8,12.79,2.21,1.59,0,*4D
1500901652.17,28488,22.63,73812.3,12.79,2.27,1.71,0,*4E
1500901653.41,28489,22.63,73810.8,12.83,2.25,1.71,0,*48
1500901654.64,28490,22.63,73808.3,12.83,1.83,1.37,0,*4D
1500901655.84,28491,22.63,73808.5,12.83,1.83,1.41,0,*4D
1500901657.06,28492,22.63,73808.3,12.85,0.79,0.17,0,*4E
1500901658.3,28493,22.63,73814.3,12.83,0.75,0.17,0,*45
1500901659.5,28494,22.63,73808.5,12.81,1.05,0.41,0,*75
1500901660.72,28495,22.63,73808.3,12.83,0.97,0.29,0,*42
1500901661.94,28496,22.63,73802.5,12.81,0.87,0.33,0,*49
1500901663.19,28497,22.63,73806.8,12.83,0.91,0.37,0,*49
1500901664.39,28498,22.63,73806.8,12.81,0.97,0.41,0,*43
1500901665.62,28499,22.63,73800.5,12.83,0.29,-0.33,0,*6D
1500901666.8,28500,22.63,73804.0,12.81,-0.11,-0.77,0,*48
1500901668.06,28501,22.63,73802.0,12.79,-0.23,-0.89,0,*4E
1500901669.25,28502,22.63,73804.8,12.77,0.17,-0.57,0,*6A
1500901670.45,28503,22.63,73802.3,12.79,0.09,-0.77,0,*58
1500901671.65,28504,22.63,73806.5,12.77,0.33,-0.45,0,*69
1500901672.88,28505,22.63,73806.3,12.75,0.55,-0.15,0,*6F
1500901674.1,28506,22.63,73810.8,12.75,1.05,0.33,0,*71
1500901675.35,28507,22.63,73816.3,12.75,1.51,0.71,0,*77
1500901676.58,28508,22.63,73816.3,12.75,0.91,0.05,0,*76
1500901677.83,28509,22.63,73812.8,12.75,0.59,-0.27,0,*6E
1500901679.07,28510,22.63,73814.3,12.75,0.59,-0.27,0,*66
1500901680.29,28511,22.63,73812.5,12.75,-0.41,-1.29,0,*7C
1500901681.51,28512,22.63,73816.0,12.73,0.63,-0.23,0,*6F
1500901682.72,28513,22.63,73814.0,12.73,0.29,-0.49,0,*6C
1500901683.89,28514,22.63,73812.3,12.73,0.43,-0.33,0,*6A
1500901685.09,28515,22.63,73814.8,12.69,0.75,-0.03,0,*56
1500901686.3,28516,22.63,73812.8,12.69,1.05,0.21,0,*7E
1500901687.5,28517,22.63,73816.8,12.69,1.05,0.13,0,*7E
1500901688.72,28518,22.63,73816.0,12.69,1.67,0.75,0,*75
1500901689.95,28519,22.63,73814.0,12.73,1.63,0.79,0,*77
1500901691.21,28520,22.63,73812.3,12.67,1.71,0.87,0,*7A
1500901692.42,28521,22.63,73808.3,12.73,0.51,-0.33,0,*6F
1500901693.63,28522,22.63,73810.3,12.73,0.91,0.05,0,*78
1500901694.83,28523,22.63,73804.8,12.69,0.71,-0.11,0,*64
1500901696.06,28524,22.63,73810.0,12.69,0.87,0.21,0,*44
1500901697.32,28525,22.63,73808.3,12.67,1.13,0.41,0,*71
1500901698.53,28526,22.63,73806.3,12.69,0.71,-0.33,0,*61
1500901699.72,28527,22.63,73810.3,12.69,0.09,-0.89,0,*5E
1500901700.95,28528,22.63,73808.0,12.67,0.09,-0.89,0,*5F
1500901702.16,28529,22.63,73812.0,12.63,-0.61,-1.55,0,*79
1500901703.4,28530,22.63,73808.3,12.65,-0.27,-1.05,0,*70
1500901704.61,28531,22.63,73810.8,12.63,-0.29,-1.29,0,*77
1500901705.8,28532,22.63,73806.3,12.61,-0.29,-1.21,0,*7E
1500901706.99,28533,22.63,73810.0,12.61,-0.41,-1.29,0,*79
1500901708.23,28534,22.63,73814.0,12.57,-0.19,-1.13,0,*7F
1500901709.46,28535,22.63,73814.3,12.57,-0.03,-0.93,0,*7C
1500901710.63,28536,22.63,73812.3,12.55,0.05,-0.81,0,*55
1500901711.82,28537,22.63,73814.0,12.55,0.67,-0.03,0,*5A
1500901713.04,28538,22.63,73816.3,12.55,1.63,0.67,0,*7F
1500901714.28,28539,22.63,73814.3,12.55,1.29,0.37,0,*75
1500901715.54,28540,22.63,73812.0,12.57,1.21,0.37,0,*71
1500901716.77,28541,22.63,73812.5,12.55,1.09,0.25,0,*7B
1500901717.94,28542,22.63,73814.0,12.55,0.43,-0.41,0,*68
1500901719.17,28543,22.63,73804.0,12.55,0.91,0.25,0,*49
1500901720.39,28544,22.63,73808.8,12.55,1.55,0.79,0,*7E
1500901721.61,28545,22.63,73808.0,12.55,1.43,0.79,0,*78
1500901722.84,28546,22.63,73810.8,12.57,1.05,0.33,0,*75
1500901724.04,28547,22.63,73810.8,12.55,1.41,0.79,0,*78
1500901725.27,28548,22.63,73804.8,12.55,1.89,1.21,0,*4F